Home   Weather   Singapore   Past weeks

Flag for Singapore Past Weather in Singapore, Singapore — Yesterday and Last 2 Weeks

Now
81 °F

Light rain. Passing clouds.


Feels Like: 86 °F
Forecast: 76 / 87 °F
Wind: 2 mph from Northwest

Location: Singapore / Paya Lebar

Current Time: Dec 11, 2016 at 9:51:58 pm

Latest Report: Dec 11, 2016 at 9:00 pm


Visibility: N/A

Pressure: 29.80 "Hg

Humidity: 84%

Dew Point: 75 °F

Location of SingaporeLocation

Past Weather in Singapore — Graph

°F

Singapore Temperature Yesterday

Maximum temperature yesterday: 88 °F (at 2:00 pm)
Minimum temperature yesterday: 79 °F (at 6:00 am)
Average temperature yesterday: 84 °F

High & Low Weather Summary for the Past Weeks

 TemperatureHumidityPressure
High95 °F (Dec 5, 4:00 pm)94% (Nov 26, 8:00 pm)29.92 "Hg (Nov 26, 8:00 pm)
Low77 °F (Nov 27, 7:00 am)47% (Dec 4, 3:00 pm)29.68 "Hg (Dec 5, 5:00 pm)
Average84 °F77%29.79 "Hg
* Reported Nov 26 8:00 pm — Dec 11 8:00 pm, Singapore, Weather by CustomWeather, © 2016

Note: Actual official high and low records may vary slightly from our data, if they occured in-between our weather recording intervals... More about our weather records

Advertising

Singapore Weather History for the Previous 24 Hours

Scroll right to see more
 ConditionsComfort  
Time TempWeatherWind HumidityBarometerVisibility
8:00 pm
Sun, Dec 11
81 °FLight rain. Passing clouds.6 mph84%29.80 "HgN/A
7:00 pm81 °FLight rain. Partly cloudy.7 mph84%29.77 "HgN/A
6:00 pm84 °FPartly sunny.8 mph70%29.74 "HgN/A
5:00 pm84 °FPartly sunny.8 mph66%29.74 "HgN/A
4:00 pm84 °FPartly sunny.7 mph70%29.74 "HgN/A
3:00 pm86 °FPartly sunny.8 mph66%29.77 "HgN/A
2:00 pm86 °FPartly sunny.8 mph66%29.80 "HgN/A
1:00 pm86 °FPartly sunny.7 mph66%29.83 "HgN/A
12:00 pm84 °FBroken clouds.5 mph70%29.86 "HgN/A
11:00 am82 °FPartly sunny.7 mph74%29.86 "HgN/A
10:00 am82 °FBroken clouds.8 mph79%29.83 "HgN/A
9:00 am79 °FBroken clouds.5 mph89%29.80 "HgN/A
8:00 am79 °FPartly sunny.3 mph89%29.80 "HgN/A
7:00 am77 °FPartly sunny.1 mph89%29.77 "HgN/A
6:00 am77 °FPassing clouds.5 mph89%29.77 "HgN/A
5:00 am77 °FPassing clouds.3 mph89%29.77 "HgN/A
11:00 pm
Sat, Dec 10
81 °FPassing clouds.No wind89%29.83 "HgN/A
10:00 pm82 °FPassing clouds.3 mph84%29.80 "HgN/A
9:00 pm82 °FPassing clouds.5 mph84%29.80 "HgN/A
Weather by CustomWeather, © 2016

See weather overviewHow to use our weather pages